Skip Page Navigation
NASA JPL Caltech
NASA Logo - Jet Propulsion Laboratory + View the NASA Portal
+ Center for Near-Earth Object Studies
JPL Home Earth Solar System Stars & Galaxies Technology
JPL Solar System Dynamics
BODIES ORBITS EPHEMERIDES TOOLS PHYSICAL DATA DISCOVERY FAQ SITE MAP
JPL Small-Body Database Browser
Search: [ help ]  
10927 Vaucluse (1998 BB42)
Classification: Main-belt Asteroid          SPK-ID: 2010927
Ephemeris | Orbit Diagram | Orbital Elements | Mission Design | Physical Parameters | Discovery Circumstances | Close-Approach Data ]

[ show orbit diagram ]
Orbital Elements at Epoch 2459200.5 (2020-Dec-17.0) TDB
Reference: JPL 34 (heliocentric ecliptic J2000)
 Element Value Uncertainty (1-sigma)   Units 
e .1305429719238821 3.9576e-08  
a 2.602476073163433 1.1064e-08 au
q 2.262741112211884 1.0619e-07 au
i 6.700522496126552 5.0895e-06 deg
node 14.23174501691096 2.8813e-05 deg
peri 34.08251552018419 3.3961e-05 deg
M 237.9248035392731 1.8402e-05 deg
tp 2459720.500158505950
(2022-May-21.00015851)
7.9761e-05 TDB
period 1533.481513768168
4.20
9.7787e-06
2.677e-08
d
yr
n .2347599216343894 1.497e-09 deg/d
Q 2.942211034114982 1.2508e-08 au
  Orbit Determination Parameters
   # obs. used (total)      1701  
   data-arc span      14439 days (39.53 yr)  
   first obs. used      1981-01-08  
   last obs. used      2020-07-21  
   planetary ephem.      DE441  
   SB-pert. ephem.      SB441-N16  
   condition code      0  
   norm. resid. RMS      .53494  
   source      ORB  
   producer      Otto Matic  
   solution date      2021-Apr-12 22:25:45  

Additional Information
 Earth MOID = 1.27476 au 
 Jupiter MOID = 2.45524 au 
 T_jup = 3.392 
[ show covariance matrix ]

Ephemeris | Orbit Diagram | Orbital Elements | Mission Design | Physical Parameters | Discovery Circumstances | Close-Approach Data ]

Physical Parameter Table
Parameter Symbol Value Units Sigma Reference Notes
absolute magnitude H 14.14   n/a E2021B10  
diameter diameter 7.921 km 0.037 urn:nasa:pds:neowise_diameters_albedos::2.0[mainbelt] (http://adsabs.harvard.edu/abs/2011ApJ...741...68M)  
rotation period rot_per 5.482 h n/a LCDB (Rev. 2020-October); Warner et al., 2009 Result based on less than full coverage, so that the period may be wrong by 30 percent or so.
Published Reference List:
[Waszczak, A.; Chang, C.-K.; Ofeck, E.O.; Laher, F.; et al. (2015) Astron. J. 150, A75.]
geometric albedo albedo 0.081   0.015 urn:nasa:pds:neowise_diameters_albedos::2.0[mainbelt] (http://adsabs.harvard.edu/abs/2011ApJ...741...68M)  

10927 Vaucluse           Discovered 1998 Jan. 29 by R. Roy at Blauvac.
Vaucluse is a French département. This minor planet was discovered by a member of AUDE (Association des Utilisateurs de Detecteurs Electroniques) based in the little Vaucluse village of Saint-Estève in the commune of Blauvac.
NOTE: some special characters may not display properly (any characters within {} are an attempt to place the proper accent above a character)
Reference: 19991123/MPCPages.arcLast Updated: 2010-06-11

[ show close-approach data ]
Alternate Designations
 1998 BB42 = 1981 AV3 = 1988 XU3 = 1992 WE8 = 1994 CJ18 = 1996 TC61 
Ephemeris | Orbit Diagram | Orbital Elements | Mission Design | Physical Parameters | Discovery Circumstances | Close-Approach Data ]
ABOUT SSD CREDITS/AWARDS PRIVACY/COPYRIGHT GLOSSARY LINKS
FirstGov 2021-Jun-17 18:49 UT
(server date/time)  
NASA Home Page
Site Manager:   Ryan S. Park
Webmaster  Alan B. Chamberlin